Johnstown, PA

4:12 PM EST on December 10, 2016 (GMT -0500)
The Treetops at Stackhouse | | Change Station
Active Advisory: Winter Weather Advisory Active Notice: Public Information Statement

Elev 1663 ft 40.32 °N, 78.93 °W | Updated 37 seconds ago

Overcast
Overcast
22.5 °F
Feels Like 22 °F
N
2.0
Wind Variable Wind from WSW

Today
High -- | Low -- °F
--% Chance of Precip.
Yesterday
High -- | Low -- °F
Precip. -- in
Pressure 30.44 in
Visibility 10.0 miles
Clouds Overcast 3000 ft
Windchill 22 °F
Dew Point 14 °F
Humidity 70%
Rainfall 0.00 in
Snow Depth Not available.
7:27 AM 4:49 PM
Waxing Gibbous, 86% visible
METAR KJST 102054Z AUTO 26010KT 10SM OVC030 M07/M10 A3033 RMK AO2 SNE42 SLP308 P0000 60000 T10671100 53006 TSNO
Pressure 30.44 in
Visibility 10.0 miles
Clouds Overcast 3000 ft
Windchill 22 °F
Dew Point 14 °F
Humidity 70%
Rainfall 0.00 in
Snow Depth Not available.
7:27 AM 4:49 PM
Waxing Gibbous, 86% visible
METAR KJST 102054Z AUTO 26010KT 10SM OVC030 M07/M10 A3033 RMK AO2 SNE42 SLP308 P0000 60000 T10671100 53006 TSNO

10-Day Weather Forecast

Almanac

Astronomy

Dec. 10, 2016 Rise Set
Actual Time
Civil Twilight
Nautical Twilight
Astronomical Twilight
Moon
Length of Visible Light
Length of Day
Tomorrow will be .
, % of the Moon is Illuminated

Today's Extremes

State Highs State Lows

Community

WunderPhotos

Upload Photos

1,956,663 photos uploaded!

WunderBlog® & News

Nearby

Air Quality

  Air Quality AQ Index Pollutant
Not available.

Snow Depth

Station Depth Elevation

Earthquake Activity

City Distance Mag. Time & Date
Minimum magnitude displayed is 2.5.

Coastal Water Temperatures

Place Temperature

Stations

Nearby Weather Stations

Station Location Temp. Windchill Dew Point Humidity Wind Precip. Elev Updated Type
                   

Watches & Warnings

Winter Weather Advisory
Issued: 2:20 PM EST Dec. 10, 2016 – National Weather Service

... Winter Weather Advisory in effect from 4 am Sunday to 1 PM EST
Monday...

* timing... snow will start in the west during the predawn hours of
Sunday and overspread the region Sunday morning. The area from
about Interstate 80 southward will likely see a changeover to
snow-sleet or freezing rain Sunday evening and overnight into
Monday morning.

* Snow accumulations... 3-6 inches from Interstate 80 northward.
1-3 inches south of the Interstate with a light coating of ice
likely late Sunday into Monday morning.

* Main impact... poor Road conditions and hazardous travel.



Precautionary/preparedness actions...

The Pennsylvania Department of Transportation reminds motorists
to adjust speeds based on driving conditions and to take it slow
in ice and snow.